Satellite-Ground Cal/Val Region Overpasses Predictions

Prediction of Satellite NPP Overpassing Cal/Val Region: PacNW

Region Location: (Latitude: 10.00, Longitude: 139.50) to (Latitude: 22.70, Longitude: 165.60).

Table of predicted overpasses for the next 14.0 days since TLE Epoch: 8/2/2019
Interval Starting Time Starting Location Ending Time Ending Location
1 08/03/2019 02:20:38 ( 10.02, 164.59) 08/03/2019 02:24:13 ( 22.64, 161.58)
2 08/03/2019 14:52:30 ( 22.69, 161.83) 08/03/2019 14:56:06 ( 10.01, 158.81)
3 08/04/2019 03:43:06 ( 10.04, 143.97) 08/04/2019 03:46:41 ( 22.66, 140.96)
4 08/04/2019 14:34:38 ( 18.63, 165.59) 08/04/2019 14:37:04 ( 10.06, 163.58)
5 08/04/2019 16:14:59 ( 22.67, 141.21) 08/04/2019 16:16:59 ( 15.63, 139.50)
6 08/05/2019 03:24:05 ( 10.05, 148.72) 08/05/2019 03:27:40 ( 22.68, 145.72)
7 08/05/2019 15:55:57 ( 22.66, 145.96) 08/05/2019 15:59:32 ( 10.04, 142.96)
8 08/06/2019 03:05:02 ( 10.01, 153.49) 08/06/2019 03:08:38 ( 22.69, 150.47)
9 08/06/2019 15:36:56 ( 22.64, 150.72) 08/06/2019 15:40:31 ( 10.02, 147.72)
10 08/07/2019 02:46:01 ( 10.02, 158.24) 08/07/2019 02:49:36 ( 22.64, 155.24)
11 08/07/2019 15:17:53 ( 22.69, 155.49) 08/07/2019 15:21:29 ( 10.01, 152.47)
12 08/08/2019 02:26:59 ( 10.04, 163.00) 08/08/2019 02:30:34 ( 22.66, 160.00)
13 08/08/2019 14:58:52 ( 22.67, 160.24) 08/08/2019 15:02:27 ( 10.05, 157.24)
14 08/09/2019 02:10:35 ( 19.27, 165.59) 08/09/2019 02:11:33 ( 22.67, 164.75)
15 08/09/2019 03:49:28 ( 10.06, 142.38) 08/09/2019 03:52:54 ( 22.15, 139.51)
16 08/09/2019 14:39:51 ( 22.66, 165.00) 08/09/2019 14:43:26 ( 10.04, 161.99)
17 08/09/2019 16:21:21 ( 22.66, 139.62) 08/09/2019 16:21:29 ( 22.19, 139.50)
18 08/10/2019 03:30:25 ( 10.01, 147.15) 08/10/2019 03:34:01 ( 22.69, 144.13)
19 08/10/2019 16:02:18 ( 22.70, 144.39) 08/10/2019 16:05:54 ( 10.02, 141.37)
20 08/11/2019 03:11:24 ( 10.03, 151.90) 08/11/2019 03:14:59 ( 22.65, 148.90)
21 08/11/2019 15:43:17 ( 22.68, 149.14) 08/11/2019 15:46:53 ( 10.01, 146.13)
22 08/12/2019 02:52:22 ( 10.04, 156.66) 08/12/2019 02:55:57 ( 22.67, 153.65)
23 08/12/2019 15:24:15 ( 22.67, 153.90) 08/12/2019 15:27:50 ( 10.05, 150.89)
24 08/13/2019 02:33:20 ( 10.00, 161.42) 08/13/2019 02:36:56 ( 22.68, 158.40)
25 08/13/2019 15:05:14 ( 22.65, 158.65) 08/13/2019 15:08:49 ( 10.03, 155.65)
26 08/14/2019 02:15:01 ( 12.54, 165.60) 08/14/2019 02:17:54 ( 22.70, 163.16)
27 08/14/2019 03:55:48 ( 10.02, 140.80) 08/14/2019 03:57:23 ( 15.60, 139.51)
28 08/14/2019 14:46:11 ( 22.70, 163.42) 08/14/2019 14:49:47 ( 10.02, 160.40)
29 08/15/2019 03:36:47 ( 10.04, 145.56) 08/15/2019 03:40:22 ( 22.66, 142.55)
30 08/15/2019 14:30:14 ( 11.88, 165.59) 08/15/2019 14:30:46 ( 10.00, 165.16)
31 08/15/2019 16:08:40 ( 22.68, 142.80) 08/15/2019 16:12:15 ( 10.06, 139.80)
32 08/16/2019 03:17:46 ( 10.05, 150.31) 08/16/2019 03:21:21 ( 22.68, 147.31)


NCC Satellite Cal/Val Overpasses Prediction Service
